DL6MAA-11 Weather Reports


time (UTC)temp
C
wind
direction
speed
KPH
gust
KPH
rain 1hr
cm
rain 24hr
cm
rain mn
cm
humidity
%
barometer
mb
20200227103721 3 160 3.2 0.0 0.00 0.00 0.00 53 1002.3
20200227102731 3 259 3.2 0.0 0.00 0.00 0.00 54 1002.6
20200227102221 3 211 3.2 0.0 0.00 0.00 0.00 56 1002.6
20200227101230 3 198 3.2 0.0 0.00 0.00 0.00 56 1003.1
20200227100740 2 168 3.2 0.0 0.00 0.00 0.00 57 1003.1
20200227100233 2 175 3.2 0.0 0.00 0.00 0.00 57 1003.3
20200227095724 2 175 4.8 0.0 0.00 0.00 0.00 57 1003.3
20200227095232 2 178 4.8 0.0 0.00 0.00 0.00 61 1003.3
20200227094728 2 173 3.2 0.0 0.00 0.00 0.00 57 1003.8
20200227094231 2 159 3.2 0.0 0.00 0.00 0.00 59 1003.8
20200227093722 2 200 1.6 0.0 0.00 0.00 0.00 60 1003.8
20200227093233 2 261 3.2 0.0 0.00 0.00 0.00 61 1004.3
20200227092720 2 188 4.8 0.0 0.00 0.00 0.00 60 1004.3
20200227092228 1 213 6.4 0.0 0.00 0.00 0.00 61 1004.3
20200227091735 1 199 6.4 0.0 0.00 0.00 0.00 61 1004.4
20200227091231 1 196 4.8 0.0 0.00 0.00 0.00 62 1004.4
20200227090739 1 178 4.8 0.0 0.00 0.00 0.00 64 1004.4
20200227090233 1 201 4.8 0.0 0.00 0.00 0.00 64 1005.0
20200227085224 1 248 4.8 0.0 0.00 0.00 0.00 65 1005.0
20200227084737 1 186 6.4 0.0 0.00 0.00 0.00 66 1005.1
20200227084231 1 193 8.0 0.0 0.00 0.00 0.00 66 1005.1
20200227083230 0 196 6.4 0.0 0.00 0.00 0.00 68 1005.5
20200227082221 0 165 4.8 0.0 0.00 0.00 0.00 69 1005.5
20200227081722 0 206 4.8 0.0 0.00 0.00 0.00 69 1006.1
20200227081230 0 276 4.8 0.0 0.00 0.00 0.00 69 1006.1
20200227080721 0 183 6.4 0.0 0.00 0.00 0.00 70 1006.1
20200227080222 0 227 6.4 0.0 0.00 0.00 0.00 70 1006.3
20200227075726 0 207 6.4 0.0 0.00 0.00 0.00 71 1006.3
20200227075234 0 59 4.8 0.0 0.00 0.00 0.00 71 1006.3
20200227074738 0 216 4.8 0.0 0.00 0.00 0.00 71 1006.4
20200227074234 0 153 4.8 0.0 0.00 0.00 0.00 72 1006.4
20200227073718 0 117 4.8 0.0 0.00 0.00 0.00 73 1006.4
20200227073226 0 257 4.8 0.0 0.00 0.00 0.00 74 1006.7
20200227072730 0 163 4.8 0.0 0.00 0.00 0.00 74 1006.7
20200227072236 0 161 4.8 0.0 0.00 0.00 0.00 75 1006.7
20200227071223 0 172 6.4 0.0 0.00 0.00 0.00 76 1006.8
20200227070724 0 171 6.4 0.0 0.00 0.00 0.00 76 1006.8
20200227065734 0 211 6.4 0.0 0.00 0.00 0.00 77 1006.7
20200227065233 0 128 6.4 0.0 0.00 0.00 0.00 76 1006.7
20200227064721 0 203 6.4 0.0 0.00 0.00 0.00 76 1006.8
20200227064225 0 147 8.0 0.0 0.00 0.00 0.00 76 1006.8
20200227063733 0 205 4.8 0.0 0.00 0.00 0.00 73 1006.8
20200227063238 0 200 4.8 0.0 0.00 0.00 0.00 73 1006.8
20200227062726 0 168 4.8 0.0 0.00 0.00 0.00 73 1006.8
20200227062232 0 183 4.8 0.0 0.00 0.00 0.00 73 1006.8
20200227061727 0 190 4.8 0.0 0.00 0.00 0.00 74 1006.8
20200227061237 0 183 4.8 0.0 0.00 0.00 0.00 74 1006.8
20200227060735 0 256 4.8 0.0 0.00 0.00 0.00 74 1006.8
20200227060238 0 170 4.8 0.0 0.00 0.00 0.00 74 1006.9
20200227055724 0 125 4.8 0.0 0.00 0.00 0.00 74 1006.9
20200227055233 0 269 4.8 0.0 0.00 0.00 0.00 73 1006.9
20200227053237 0 140 4.8 0.0 0.00 0.00 0.00 73 1006.9
20200227052727 0 237 4.8 0.0 0.00 0.00 0.00 73 1006.9
20200227051722 0 342 4.8 0.0 0.00 0.00 0.00 74 1007.0
20200227051222 0 167 4.8 0.0 0.00 0.00 0.00 74 1007.0
20200227050728 0 241 4.8 0.0 0.00 0.00 0.00 75 1007.0
20200227050237 0 207 4.8 0.0 0.00 0.00 0.00 75 1007.0
20200227045732 0 180 4.8 0.0 0.00 0.00 0.00 75 1007.0
20200227045236 0 263 4.8 0.0 0.00 0.00 0.00 75 1007.0
20200227044729 0 207 6.4 0.0 0.00 0.00 0.00 75 1007.0
20200227044236 0 169 6.4 0.0 0.00 0.00 0.00 75 1007.0
20200227043739 0 355 6.4 0.0 0.00 0.00 0.00 75 1007.0
20200227043218 0 190 6.4 0.0 0.00 0.00 0.00 75 1007.0
20200227042721 0 281 6.4 0.0 0.00 0.00 0.00 74 1007.0
20200227042222 0 300 8.0 0.0 0.00 0.00 0.00 74 1007.0
20200227041729 0 182 6.4 0.0 0.00 0.00 0.00 74 1007.0
20200227041239 0 215 6.4 0.0 0.00 0.00 0.00 74 1007.0
20200227040727 0 182 4.8 0.0 0.00 0.00 0.00 74 1007.0
20200227040228 0 160 4.8 0.0 0.00 0.00 0.00 74 1007.0
20200227035735 0 265 4.8 0.0 0.00 0.00 0.00 74 1007.0
20200227035225 0 175 4.8 0.0 0.00 0.00 0.00 74 1007.0
20200227034727 0 297 6.4 0.0 0.00 0.00 0.00 74 1007.0
20200227034229 0 186 6.4 0.0 0.00 0.00 0.00 74 1007.0
20200227033738 0 244 6.4 0.0 0.00 0.00 0.00 74 1007.0
20200227033226 0 187 6.4 0.0 0.00 0.00 0.00 74 1007.0
20200227032730 0 258 6.4 0.0 0.00 0.00 0.00 74 1007.0
20200227032223 0 191 6.4 0.0 0.00 0.00 0.00 74 1007.0
20200227031719 0 155 8.0 0.0 0.00 0.00 0.00 75 1006.8
20200227031218 0 213 9.7 0.0 0.00 0.00 0.00 75 1006.8
20200227030732 0 272 9.7 0.0 0.00 0.00 0.00 75 1006.8
20200227030221 0 290 9.7 0.0 0.00 0.00 0.00 75 1006.8
20200227025727 0 263 8.0 0.0 0.00 0.00 0.00 75 1006.8
20200227025228 0 232 6.4 0.0 0.00 0.00 0.00 75 1006.8
20200227024734 0 284 8.0 0.0 0.00 0.00 0.00 75 1006.9
20200227024239 0 240 9.7 0.0 0.00 0.00 0.00 76 1006.9
20200227023738 0 272 9.7 0.0 0.00 0.00 0.00 76 1006.9
20200227023220 0 294 8.0 0.0 0.00 0.00 0.00 76 1006.9
20200227022723 0 300 6.4 0.0 0.00 0.00 0.00 76 1006.9
20200227022227 0 198 4.8 0.0 0.00 0.00 0.00 76 1006.9
20200227021733 0 234 4.8 0.0 0.00 0.00 0.00 75 1007.0
20200227021230 0 210 6.4 0.0 0.00 0.00 0.00 75 1007.0
20200227020730 0 267 6.4 0.0 0.00 0.00 0.00 75 1007.0
20200227020227 0 213 4.8 0.0 0.00 0.00 0.00 75 1007.0
20200227015724 0 225 6.4 0.0 0.00 0.00 0.00 75 1007.0
20200227015235 0 146 6.4 0.0 0.00 0.00 0.00 75 1007.0
20200227014721 0 272 4.8 0.0 0.00 0.00 0.00 75 1007.1
20200227014227 0 132 4.8 0.0 0.00 0.00 0.00 75 1007.1
20200227013738 0 150 6.4 0.0 0.00 0.00 0.00 75 1007.1
20200227013221 0 270 6.4 0.0 0.00 0.00 0.00 74 1007.1
20200227012730 0 178 6.4 0.0 0.00 0.00 0.00 74 1007.1
20200227012221 0 119 6.4 0.0 0.00 0.00 0.00 74 1007.1
20200227011738 0 238 6.4 0.0 0.00 0.00 0.00 73 1007.0
20200227011237 0 338 8.0 0.0 0.00 0.00 0.00 73 1007.0
20200227010733 0 240 8.0 0.0 0.00 0.00 0.00 73 1007.0
20200227010224 0 273 8.0 0.0 0.00 0.00 0.00 73 1006.9
20200227005725 0 177 6.4 0.0 0.00 0.00 0.00 73 1006.9
20200227005238 0 192 6.4 0.0 0.00 0.00 0.00 73 1006.9
20200227004735 0 153 6.4 0.0 0.00 0.00 0.00 73 1007.0
20200227004225 0 344 6.4 0.0 0.00 0.00 0.00 74 1007.0
20200227003736 0 277 6.4 0.0 0.00 0.00 0.00 74 1007.0
20200227003227 -1 224 4.8 0.0 0.00 0.00 0.00 74 1006.1
20200227002731 -1 204 4.8 0.0 0.00 0.00 0.00 75 1006.1
20200227002222 -1 157 4.8 0.0 0.00 0.00 0.00 75 1006.1
20200227001731 -1 257 3.2 0.0 0.00 0.00 0.00 75 1006.9
20200227001238 -1 192 3.2 0.0 0.00 0.00 0.00 75 1006.9
20200227000725 -1 184 4.8 0.0 0.00 0.00 0.00 76 1006.9
20200227000226 -1 149 4.8 0.0 0.00 0.00 0.00 76 1006.8
20200226235733 -1 205 3.2 0.0 0.00 0.00 0.00 76 1006.8
20200226235234 -1 173 3.2 0.0 0.00 0.00 0.00 75 1006.8
20200226234735 -1 179 3.2 0.0 0.00 0.00 0.00 75 1006.8
20200226234220 -1 168 4.8 0.0 0.00 0.00 0.00 75 1006.8
20200226233720 -1 205 4.8 0.0 0.00 0.00 0.00 75 1006.8
20200226233224 -1 300 4.8 0.0 0.00 0.00 0.00 75 1006.8
20200226232734 -1 169 4.8 0.0 0.00 0.00 0.00 75 1006.8
20200226232225 -1 189 3.2 0.0 0.00 0.00 0.00 75 1006.8
20200226231732 -1 280 3.2 0.0 0.00 0.00 0.00 75 1006.2
20200226231232 -1 287 3.2 0.0 0.00 0.00 0.00 74 1006.2
20200226230722 -1 250 3.2 0.0 0.00 0.00 0.00 74 1006.2
20200226230236 -1 249 3.2 0.0 0.00 0.00 0.00 74 1006.3
20200226225737 -1 275 3.2 0.0 0.00 0.00 0.00 74 1006.3
20200226225226 -1 257 4.8 0.0 0.00 0.00 0.00 74 1006.3
20200226224740 -1 286 6.4 0.0 0.00 0.00 0.00 74 1006.1
20200226224227 -1 295 6.4 0.0 0.00 0.00 0.00 74 1006.1
20200226223734 -1 255 8.0 0.0 0.00 0.00 0.00 74 1006.1
20200226223240 -1 265 8.0 0.0 0.00 0.00 0.00 74 1006.0
20200226222735 -1 272 8.0 0.0 0.00 0.00 0.00 74 1006.0
20200226222221 -1 246 6.4 0.0 0.00 0.00 0.00 74 1006.0
20200226221731 0 264 6.4 0.0 0.00 0.00 0.00 74 1005.9
20200226221222 0 240 4.8 0.0 0.00 0.00 0.00 74 1005.9
20200226220733 0 272 4.8 0.0 0.00 0.00 0.00 74 1005.9
20200226220232 0 273 6.4 0.0 0.00 0.00 0.00 74 1005.9
20200226215740 0 266 6.4 0.0 0.00 0.00 0.00 74 1005.9
20200226215236 0 240 6.4 0.0 0.00 0.00 0.00 74 1005.9
20200226214730 0 268 6.4 0.0 0.00 0.00 0.00 74 1005.7
20200226214232 0 211 6.4 0.0 0.00 0.00 0.00 74 1005.7
20200226213738 0 181 6.4 0.0 0.00 0.00 0.00 74 1005.7
20200226213226 0 108 6.4 0.0 0.00 0.00 0.00 74 1005.6
20200226212729 0 194 4.8 0.0 0.00 0.00 0.00 74 1005.6
20200226212238 0 180 4.8 0.0 0.00 0.00 0.00 74 1005.6
20200226211729 0 294 8.0 0.0 0.00 0.00 0.00 74 1005.5
20200226211233 0 355 8.0 0.0 0.00 0.00 0.00 74 1005.5
20200226210730 0 190 6.4 0.0 0.00 0.00 0.00 74 1005.5
20200226210229 0 272 6.4 0.0 0.00 0.00 0.00 74 1005.5
20200226205736 0 278 8.0 0.0 0.00 0.00 0.00 74 1005.5
20200226205226 0 302 8.0 0.0 0.00 0.00 0.00 75 1005.5
20200226204724 0 154 8.0 0.0 0.00 0.00 0.00 75 1005.3
20200226204221 0 273 8.0 0.0 0.00 0.00 0.00 75 1005.3
20200226203720 0 144 8.0 0.0 0.00 0.00 0.00 75 1005.3
20200226203230 0 268 8.0 0.0 0.00 0.00 0.00 76 1005.0
20200226202738 0 161 8.0 0.0 0.00 0.00 0.00 76 1005.0
20200226202227 0 269 6.4 0.0 0.00 0.00 0.00 76 1005.0
20200226201730 0 277 8.0 0.0 0.00 0.00 0.00 76 1004.9
20200226201230 0 194 9.7 0.0 0.00 0.00 0.00 77 1004.9
20200226200735 0 249 9.7 0.0 0.00 0.00 0.00 77 1004.9
20200226200223 0 194 8.0 0.0 0.00 0.00 0.00 77 1004.9
20200226195732 0 147 9.7 0.0 0.00 0.00 0.00 78 1004.9
20200226195240 0 307 8.0 0.0 0.00 0.00 0.00 78 1004.9
20200226194728 0 163 6.4 0.0 0.00 0.00 0.00 78 1004.8
20200226194226 0 221 6.4 0.0 0.00 0.00 0.00 78 1004.8
20200226193728 0 152 4.8 0.0 0.00 0.00 0.00 78 1004.8
20200226193231 0 290 4.8 0.0 0.00 0.00 0.00 78 1004.7
20200226192738 0 126 4.8 0.0 0.00 0.00 0.00 77 1004.7
20200226192240 0 288 8.0 0.0 0.00 0.00 0.00 77 1004.7
20200226191725 0 192 9.7 0.0 0.00 0.00 0.00 77 1004.6
20200226191230 0 256 6.4 0.0 0.00 0.00 0.00 76 1004.6
20200226190732 0 327 4.8 0.0 0.00 0.00 0.00 75 1004.6
20200226190235 0 232 4.8 0.0 0.00 0.00 0.00 75 1004.5
20200226185725 0 150 4.8 0.0 0.00 0.00 0.00 75 1004.5
20200226185236 0 190 6.4 0.0 0.00 0.00 0.00 75 1004.5
20200226184741 0 182 6.4 0.0 0.00 0.00 0.00 75 1004.0
20200226184241 0 172 6.4 0.0 0.00 0.00 0.00 75 1004.0
20200226183723 0 219 4.8 0.0 0.00 0.00 0.00 75 1004.0
20200226183236 0 241 6.4 0.0 0.00 0.00 0.00 76 1003.9
20200226182736 0 296 6.4 0.0 0.00 0.00 0.00 75 1003.9
20200226182232 0 234 6.4 0.0 0.00 0.00 0.00 75 1003.9
20200226181722 0 274 8.0 0.0 0.00 0.00 0.00 75 1003.3
20200226181228 0 271 8.0 0.0 0.00 0.00 0.00 75 1003.3
20200226180735 0 122 6.4 0.0 0.00 0.00 0.00 75 1003.3
20200226180226 0 101 6.4 0.0 0.00 0.00 0.00 75 1002.9
20200226175721 0 198 6.4 0.0 0.00 0.00 0.00 75 1002.9
20200226175236 0 252 6.4 0.0 0.00 0.00 0.00 76 1002.9
20200226174729 0 313 6.4 0.0 0.00 0.00 0.00 76 1002.4
20200226174235 0 274 6.4 0.0 0.00 0.00 0.00 76 1002.4
20200226173723 0 226 4.8 0.0 0.00 0.00 0.00 75 1002.4
20200226173225 0 306 6.4 0.0 0.00 0.00 0.00 75 1002.3
20200226172735 0 136 6.4 0.0 0.00 0.00 0.00 75 1002.3
20200226172226 0 249 8.0 0.0 0.00 0.00 0.00 75 1002.3
20200226171736 0 136 8.0 0.0 0.00 0.00 0.00 75 1001.8
20200226171229 0 196 9.7 0.0 0.00 0.00 0.00 75 1001.8
20200226170721 0 284 9.7 0.0 0.00 0.00 0.00 75 1001.8
20200226170233 0 260 8.0 0.0 0.00 0.00 0.00 74 1001.7
20200226165721 0 277 9.7 0.0 0.00 0.00 0.00 74 1001.7
20200226165235 0 275 8.0 0.0 0.00 0.00 0.00 73 1001.7
20200226164723 0 165 9.7 0.0 0.00 0.00 0.00 73 1001.6
20200226164233 0 230 9.7 0.0 0.00 0.00 0.00 72 1001.6
20200226163720 0 257 9.7 0.0 0.00 0.00 0.00 72 1001.6
20200226163227 0 261 8.0 0.0 0.00 0.00 0.00 72 1001.4
20200226162737 0 41 6.4 0.0 0.00 0.00 0.00 73 1001.4
20200226162225 0 143 6.4 0.0 0.00 0.00 0.00 73 1001.4
20200226161733 0 126 8.0 0.0 0.00 0.00 0.00 73 1001.2
20200226161221 0 261 8.0 0.0 0.00 0.00 0.00 72 1001.2
20200226160734 0 107 6.4 0.0 0.00 0.00 0.00 72 1001.2
20200226160224 0 53 9.7 0.0 0.00 0.00 0.00 71 1000.9
20200226155731 0 241 9.7 0.0 0.00 0.00 0.00 71 1000.9
20200226155242 0 283 8.0 0.0 0.00 0.00 0.00 70 1000.9
20200226154728 0 252 8.0 0.0 0.00 0.00 0.00 70 1000.6
20200226154222 0 86 9.7 0.0 0.00 0.00 0.00 69 1000.6
20200226153742 0 279 9.7 0.0 0.00 0.00 0.00 69 1000.6
20200226153225 0 279 9.7 0.0 0.00 0.00 0.00 68 1000.5
20200226152731 0 161 9.7 0.0 0.00 0.00 0.00 68 1000.5
20200226152220 0 311 9.7 0.0 0.00 0.00 0.00 69 1000.5
20200226151724 0 298 9.7 0.0 0.00 0.00 0.00 69 1000.4
20200226151228 0 98 9.7 0.0 0.00 0.00 0.00 69 1000.4
20200226150731 0 272 8.0 0.0 0.00 0.00 0.00 69 1000.4
20200226150228 0 222 11.3 0.0 0.00 0.00 0.00 68 1000.4
20200226145729 1 275 11.3 0.0 0.00 0.00 0.00 67 1000.4
20200226145240 1 227 11.3 0.0 0.00 0.00 0.00 68 1000.4
20200226144724 1 290 11.3 0.0 0.00 0.00 0.00 68 1000.4
20200226144228 1 269 12.9 0.0 0.00 0.00 0.00 69 1000.4
20200226143735 0 296 12.9 0.0 0.00 0.00 0.00 69 1000.4
20200226143239 0 255 11.3 0.0 0.00 0.00 0.00 69 1000.2
20200226142735 0 274 9.7 0.0 0.00 0.00 0.00 70 1000.2
20200226142234 0 277 9.7 0.0 0.00 0.00 0.00 72 1000.2
20200226141720 0 277 8.0 0.0 0.00 0.00 0.00 72 1000.3
20200226141228 0 318 9.7 0.0 0.00 0.00 0.00 73 1000.3
20200226140735 0 313 11.3 0.0 0.00 0.00 0.00 73 1000.3
20200226140221 0 306 11.3 0.0 0.00 0.00 0.00 74 999.9
20200226135724 0 192 12.9 0.0 0.00 0.00 0.00 75 999.9
20200226135227 0 197 11.3 0.0 0.00 0.00 0.00 76 999.9
20200226134731 0 294 11.3 0.0 0.00 0.00 0.00 76 999.7
20200226134234 0 186 12.9 0.0 0.00 0.00 0.00 77 999.7
20200226133734 0 277 14.5 0.0 0.00 0.00 0.00 77 999.7
20200226133235 0 278 14.5 0.0 0.00 0.00 0.00 78 999.3
20200226132728 0 165 14.5 0.0 0.00 0.00 0.00 78 999.3
20200226132238 0 242 14.5 0.0 0.00 0.00 0.00 79 999.3
20200226131726 0 229 12.9 0.0 0.00 0.00 0.00 79 999.1
20200226131232 0 281 12.9 0.0 0.00 0.00 0.00 80 999.1
20200226130739 0 295 12.9 0.0 0.00 0.00 0.00 80 999.1
20200226130226 0 80 17.7 0.0 0.00 0.00 0.00 80 998.6
20200226125729 0 286 19.3 0.0 0.00 0.00 0.00 78 998.6
20200226125239 0 181 16.1 0.0 0.00 0.00 0.00 77 998.6
20200226124729 0 263 12.9 0.0 0.00 0.00 0.00 75 998.1
20200226124237 0 301 11.3 0.0 0.00 0.00 0.00 76 998.1
20200226123743 0 215 11.3 0.0 0.00 0.00 0.00 78 998.1
20200226123231 0 275 9.7 0.0 0.00 0.00 0.00 78 997.9
20200226122740 0 173 9.7 0.0 0.00 0.00 0.00 79 997.9
20200226122226 0 288 11.3 0.0 0.00 0.00 0.00 80 997.9
20200226121732 0 360 8.0 0.0 0.00 0.00 0.00 81 998.0
20200226121236 0 323 8.0 0.0 0.00 0.00 0.00 80 998.0
20200226120241 0 360 20.9 0.0 0.00 0.00 0.00 79 997.7
20200226115725 0 275 19.3 0.0 0.00 0.00 0.00 79 997.7
20200226115228 0 270 17.7 0.0 0.00 0.00 0.00 79 997.7
20200226114737 0 275 12.9 0.0 0.00 0.00 0.00 79 997.4
20200226114225 0 282 9.7 0.0 0.00 0.00 0.00 78 997.4
20200226113728 0 186 12.9 0.0 0.00 0.00 0.00 77 997.4
20200226113237 0 213 16.1 0.0 0.00 0.00 0.00 77 997.3
20200226112743 0 270 11.3 0.0 0.00 0.00 0.00 76 997.3
20200226112224 1 272 9.7 0.0 0.00 0.00 0.00 75 997.3
20200226111731 1 272 11.3 0.0 0.00 0.00 0.00 73 997.7
20200226111234 1 308 14.5 0.0 0.00 0.00 0.00 71 997.7
20200226110735 2 293 12.9 0.0 0.00 0.00 0.00 68 997.7
20200226110228 2 240 11.3 0.0 0.00 0.00 0.00 66 997.3
20200226105737 2 203 9.7 0.0 0.00 0.00 0.00 64 997.3
20200226105223 2 232 9.7 0.0 0.00 0.00 0.00 65 997.3
20200226104733 2 249 12.9 0.0 0.00 0.00 0.00 65 997.3
20200226104237 2 295 14.5 0.0 0.00 0.00 0.00 64 997.3